FW9473 Weather Reports


time (UTC)temp
C
wind
direction
speed
KPH
gust
KPH
rain 1hr
cm
rain 24hr
cm
rain mn
cm
humidity
%
barometer
mb
20260906073054 22 0 0.0 0.0 0.00 0.00 0.00 95 1014.8
20260906071553 22 0 0.0 0.0 0.00 0.00 0.00 94 1014.7
20260906070100 22 0 0.0 0.0 0.00 0.00 0.00 94 1014.9
20260906064552 22 0 0.0 0.0 0.00 0.00 0.00 94 1015.0
20260906063055 22 0 0.0 0.0 0.00 0.00 0.00 94 1015.1
20260906061607 22 0 0.0 0.0 0.00 0.00 0.00 93 1015.7
20260906060059 22 0 0.0 0.0 0.00 0.00 0.00 93 1015.6
20260906054607 22 0 0.0 0.0 0.00 0.00 0.00 92 1015.9
20260906053117 22 0 0.0 0.0 0.00 0.00 0.00 92 1015.9
20260906051550 22 0 0.0 0.0 0.00 0.00 0.00 91 1016.4
20260906050053 22 0 0.0 0.0 0.00 0.00 0.00 91 1016.2
20260906044549 23 0 0.0 0.0 0.00 0.00 0.00 90 1016.3
20260906043058 23 0 0.0 0.0 0.00 0.00 0.00 89 1015.8
20260906041555 23 0 0.0 0.0 0.00 0.00 0.00 89 1015.9
20260906040052 23 0 0.0 0.0 0.00 0.00 0.00 88 1016.0
20260906034558 23 0 0.0 0.0 0.00 0.00 0.00 88 1015.9
20260906033056 22 0 0.0 0.0 0.00 0.00 0.00 88 1016.1
20260906031551 23 0 0.0 0.0 0.00 0.00 0.00 87 1016.2
20260906024618 23 0 0.0 0.0 0.00 0.00 0.00 85 1015.9
20260906023100 23 0 0.0 0.0 0.00 0.00 0.00 85 1015.8
20260906021601 23 0 0.0 0.0 0.00 0.00 0.00 84 1015.8
20260906020100 23 0 0.0 0.0 0.00 0.00 0.00 82 1016.2
20260906014554 24 0 0.0 0.0 0.00 0.00 0.00 81 1016.1
20260906013050 24 0 0.0 0.0 0.00 0.00 0.00 80 1016.2
20260906011558 24 0 0.0 0.0 0.00 0.00 0.00 78 1015.9
20260906010129 25 0 0.0 0.0 0.00 0.00 0.00 77 1015.9
20260906004603 25 0 0.0 0.0 0.00 0.00 0.00 75 1015.4
20260906003110 26 0 0.0 0.0 0.00 0.00 0.00 74 1015.1
20260906001609 26 0 0.0 0.0 0.00 0.00 0.00 72 1014.9
20260906000058 26 0 0.0 0.0 0.00 0.00 0.00 71 1015.2
20260905234553 26 0 0.0 0.0 0.00 0.00 0.00 71 1015.1
20260905233103 27 0 0.0 0.0 0.00 0.00 0.00 69 1015.0
20260905231551 27 0 0.0 0.0 0.00 0.00 0.00 68 1014.9
20260905230115 27 0 1.6 6.4 0.00 0.00 0.00 66 1014.6
20260905224553 28 0 1.6 6.4 0.00 0.00 0.00 64 1014.9
20260905223104 28 279 3.2 8.0 0.00 0.00 0.00 65 1015.1
20260905221608 28 40 1.6 9.7 0.00 0.00 0.00 66 1015.0
20260905220056 28 297 3.2 6.4 0.00 0.00 0.00 65 1014.8
20260905214553 28 282 0.0 11.3 0.00 0.00 0.00 65 1015.1
20260905213102 28 308 3.2 8.0 0.00 0.00 0.00 65 1015.3
20260905211552 27 235 1.6 8.0 0.00 0.00 0.00 65 1015.4
20260905210105 28 0 0.0 6.4 0.00 0.00 0.00 62 1015.1
20260905204602 27 301 3.2 4.8 0.00 0.00 0.00 64 1015.6
20260905203103 27 41 4.8 14.5 0.00 0.00 0.00 65 1015.6
20260905201609 27 55 11.3 25.7 0.00 0.00 0.00 63 1015.4
20260905194556 28 46 9.7 27.4 0.00 0.00 0.00 60 1015.9
20260905193051 31 53 16.1 37.0 0.00 0.00 0.00 58 1015.7
20260905191559 35 0 0.0 0.0 0.00 0.00 0.00 49 1015.0
20260905190049 36 0 0.0 0.0 0.00 0.00 0.00 47 1014.6
20260905184611 36 0 0.0 0.0 0.00 0.00 0.00 48 1014.6
20260905183109 35 0 0.0 0.0 0.00 0.00 0.00 49 1014.9
20260905181554 36 0 0.0 0.0 0.00 0.00 0.00 48 1015.2
20260905180105 36 0 0.0 0.0 0.00 0.00 0.00 50 1015.6
20260905174554 35 0 0.0 0.0 0.00 0.00 0.00 49 1015.6
20260905173110 35 0 0.0 0.0 0.00 0.00 0.00 50 1015.9
20260905171603 35 0 0.0 0.0 0.00 0.00 0.00 50 1015.7
20260905170108 35 0 0.0 0.0 0.00 0.00 0.00 52 1016.3
20260905164603 34 0 0.0 0.0 0.00 0.00 0.00 54 1016.5
20260905163101 34 0 0.0 0.0 0.00 0.00 0.00 55 1016.9
20260905161559 33 0 0.0 0.0 0.00 0.00 0.00 57 1017.1
20260905160056 32 0 0.0 0.0 0.00 0.00 0.00 61 1017.3
20260905154551 32 0 0.0 0.0 0.00 0.00 0.00 63 1017.4
20260905153048 32 0 0.0 0.0 0.00 0.00 0.00 65 1017.7
20260905151558 31 0 0.0 0.0 0.00 0.00 0.00 67 1017.7
20260905150105 31 0 0.0 0.0 0.00 0.00 0.00 70 1017.7
20260905144550 30 0 0.0 0.0 0.00 0.00 0.00 71 1017.7
20260905143100 29 0 0.0 0.0 0.00 0.00 0.00 74 1017.8
20260905141600 28 0 0.0 0.0 0.00 0.00 0.00 74 1018.1
20260905140107 29 0 0.0 0.0 0.00 0.00 0.00 74 1018.1
20260905134553 28 0 0.0 0.0 0.00 0.00 0.00 76 1018.1
20260905133047 28 0 0.0 0.0 0.00 0.00 0.00 77 1018.0
20260905131601 27 0 0.0 0.0 0.00 0.00 0.00 81 1018.1
20260905130054 26 0 0.0 0.0 0.00 0.00 0.00 84 1018.1
20260905124605 26 0 0.0 0.0 0.00 0.00 0.00 87 1018.1
20260905123106 25 0 0.0 0.0 0.00 0.00 0.00 91 1018.1
20260905121552 23 0 0.0 0.0 0.00 0.00 0.00 94 1017.9
20260905114555 22 0 0.0 0.0 0.00 0.00 0.00 95 1017.8
20260905113052 22 0 0.0 0.0 0.00 0.00 0.00 95 1017.6
20260905111606 22 0 0.0 0.0 0.00 0.00 0.00 95 1017.3
20260905110058 22 0 0.0 0.0 0.00 0.00 0.00 94 1017.2
20260905104609 22 0 0.0 0.0 0.00 0.00 0.00 94 1017.0
20260905103051 22 0 0.0 0.0 0.00 0.00 0.00 94 1016.9
20260905101605 22 0 0.0 0.0 0.00 0.00 0.00 94 1016.8
20260905100105 22 0 0.0 0.0 0.00 0.00 0.00 94 1016.9
20260905094552 22 0 0.0 0.0 0.00 0.00 0.00 93 1016.8
20260905093052 22 0 0.0 0.0 0.00 0.00 0.00 93 1017.0
20260905091550 22 0 0.0 0.0 0.00 0.00 0.00 93 1016.7
20260905090131 23 0 0.0 0.0 0.00 0.00 0.00 92 1016.8
20260905084552 23 0 0.0 0.0 0.00 0.00 0.00 92 1017.0
20260905083100 23 0 0.0 0.0 0.00 0.00 0.00 91 1017.2
20260905081558 23 0 0.0 0.0 0.00 0.00 0.00 91 1016.9
20260905080050 23 0 0.0 0.0 0.00 0.00 0.00 91 1017.2
20260905074600 23 0 0.0 0.0 0.00 0.00 0.00 89 1017.3